Theta_e
315 316 317 317 319 321 321 316 321 322 337 340 343 342 342 357 357 358 360 350 360 359 346 348 350 349 349 350 356 356 358 358 358 357 357 357 358 360 360 359 360 360 361 361
316 317 317 319 318 320 324 343 320 326 345 345 353 355 358 357 360 361 362 360 361 358 350 346 348 348 348 349 353 357 358 359 359 359 359 359 359 361 361 361 361 361 363 362
318 317 319 317 319 322 345 344 342 334 355 355 357 357 356 356 357 356 353 354 356 354 359 360 346 347 347 348 349 357 358 359 359 359 360 359 360 362 362 362 362 363 363 362
317 317 319 316 331 337 343 342 342 347 351 351 357 356 352 350 349 349 347 347 348 350 354 361 360 347 347 348 349 356 358 359 359 360 360 360 362 362 363 363 363 364 363 363
316 317 316 326 335 336 335 343 339 343 342 346 347 349 347 343 342 342 342 341 341 343 350 357 359 361 349 349 351 355 357 358 359 359 360 360 362 363 364 364 363 363 363 364
312 318 320 330 334 333 332 345 336 338 341 344 346 352 347 340 337 337 336 337 336 339 351 347 350 363 357 352 352 354 355 355 357 359 359 360 362 364 363 363 362 363 363 364
312 315 318 332 333 333 337 340 335 334 341 345 346 344 339 336 336 334 333 334 335 338 344 340 342 358 360 361 358 355 353 354 356 359 358 358 360 362 362 363 365 364 365 365
311 315 318 329 333 339 335 333 333 332 333 341 341 338 337 334 333 332 331 332 334 337 337 336 337 343 348 351 355 362 360 355 357 358 359 360 360 362 363 364 365 364 367 365
320 327 327 326 327 327 328 328 328 330 331 338 339 338 333 331 328 329 330 329 330 332 333 333 335 336 339 346 356 361 365 362 360 360 361 361 362 364 366 366 366 366 364 360
322 320 321 321 324 324 324 326 327 328 329 334 335 335 331 327 326 325 325 326 328 328 329 329 332 334 336 341 354 360 363 366 366 365 365 365 365 366 367 366 366 366 363 359
319 316 317 317 316 321 322 323 324 327 327 329 332 333 331 327 325 324 324 324 325 326 326 326 328 332 335 340 346 359 360 364 365 367 367 368 369 369 368 367 366 367 364 360
316 311 312 313 312 316 320 321 322 324 327 325 329 329 329 327 326 325 323 322 322 322 324 324 326 328 332 337 343 351 356 358 366 366 366 367 369 368 369 369 368 367 366 362
308 308 308 309 310 316 317 318 320 322 325 324 324 327 327 327 328 326 323 321 321 321 322 324 323 325 330 336 344 346 346 352 360 367 365 366 366 366 364 367 369 368 368 367
307 308 310 313 316 314 315 318 321 324 323 323 324 325 325 325 322 321 321 320 319 319 319 320 322 324 329 335 339 340 343 349 356 359 362 366 365 363 364 363 362 362 367 368
310 310 312 314 312 312 315 317 319 321 322 321 322 321 320 319 319 321 318 315 316 316 317 318 320 322 327 334 340 338 339 343 349 353 355 357 354 353 353 352 352 356 361 360
309 310 313 313 313 311 313 317 317 319 321 320 320 319 318 317 317 317 318 314 313 314 314 315 317 320 324 330 337 339 338 339 343 347 348 346 344 343 343 345 342 340 346 353
310 311 312 313 311 311 313 315 317 317 318 320 319 320 316 315 314 313 313 313 312 312 310 312 313 320 322 325 329 334 338 339 338 339 344 342 340 339 338 341 338 340 342 342
306 307 307 308 309 311 314 315 316 315 315 317 314 316 315 314 312 310 309 310 310 308 307 312 316 320 320 322 324 327 332 334 336 337 337 340 341 339 337 336 337 332 332 333
305 307 308 308 309 312 312 313 313 313 314 312 310 310 312 310 308 306 306 307 308 307 306 315 318 319 319 319 322 322 323 326 327 328 330 332 332 336 334 335 332 331 332 335
306 307 307 307 308 309 309 309 310 309 308 309 306 306 305 306 308 305 305 305 305 305 308 316 317 317 317 318 318 320 320 320 320 320 320 321 322 323 328 332 324 326 328 325
307 307 307 307 306 306 308 308 308 308 307 308 305 304 303 303 304 304 304 303 304 304 311 315 315 314 314 318 317 317 318 317 316 316 316 316 317 317 317 316 316 316 316 316
307 307 307 308 307 307 305 307 307 306 305 306 307 306 305 304 304 304 304 304 304 304 305 306 313 311 312 314 315 316 316 316 316 315 314 313 313 313 312 312 312 312 313 313
307 307 307 307 308 308 307 306 307 307 306 306 306 306 305 305 304 304 303 305 304 303 304 304 309 309 309 310 312 313 313 313 314 314 314 312 312 311 310 309 308 307 306 305
305 306 307 307 307 308 308 308 307 306 305 306 305 305 305 305 305 304 304 304 304 303 303 303 304 308 306 307 308 309 309 309 310 309 309 311 311 311 308 307 306 303 301 300
305 304 304 306 307 305 306 307 307 308 308 307 305 305 305 305 304 304 304 304 303 303 303 303 303 306 306 305 306 306 305 305 306 306 306 308 307 305 304 302 300 299 297 295
303 303 303 304 303 305 305 305 304 306 306 306 306 305 304 305 304 304 304 304 304 303 303 302 303 303 304 305 305 305 304 304 304 303 303 303 302 302 301 300 298 297 296 294
304 304 304 303 304 304 304 304 302 301 304 305 305 305 304 304 304 303 303 303 302 302 303 302 302 303 302 303 305 306 304 304 304 304 303 302 302 301 301 300 298 297 296 295
Wind_Speed
6 7 4 6 10 10 3 7 6 6 7 2 5 5 7 7 11 10 13 8 14 18 14 23 26 28 28 30 34 37 36 33 36 35 33 30 29 25 21 20 20 18 16 13
3 5 7 9 12 9 5 10 4 7 4 5 7 12 15 12 14 14 15 12 13 19 7 15 28 31 31 29 32 37 34 36 34 34 33 31 28 26 22 22 21 20 17 14
4 5 4 7 6 3 7 14 6 4 8 10 11 14 8 11 12 14 14 10 10 16 12 5 21 27 31 33 31 34 34 32 34 34 33 31 28 27 24 24 23 22 17 15
4 5 4 2 10 10 12 19 19 13 12 8 11 13 14 13 10 11 11 11 10 8 18 16 2 28 28 30 36 32 29 32 35 34 33 31 28 28 26 25 25 23 18 16
1 2 5 3 9 6 4 7 16 10 7 12 10 6 14 16 14 12 10 7 12 15 17 15 17 8 29 29 29 29 31 33 34 35 33 32 31 30 28 27 26 24 20 19
2 1 4 2 11 12 3 3 15 11 8 8 15 5 5 13 14 15 17 17 20 23 18 22 26 11 25 26 30 29 31 36 36 35 35 34 33 31 30 28 27 23 20 20
3 3 5 13 13 11 4 1 9 9 6 13 9 4 4 10 13 16 17 20 22 23 22 25 28 18 12 9 6 20 35 35 34 34 35 34 33 31 30 29 27 24 22 21
2 1 5 22 5 5 2 4 3 4 10 12 10 10 11 11 11 13 16 21 22 20 21 25 28 21 17 16 11 3 23 31 33 34 34 33 32 31 31 30 28 25 23 22
2 3 4 7 11 12 11 3 5 5 6 11 10 12 6 7 8 12 14 17 19 19 19 22 26 23 16 15 12 6 11 25 28 30 32 32 33 31 29 30 24 24 21 22
1 7 8 10 12 14 12 14 7 7 8 10 9 6 7 3 6 12 14 15 16 17 18 21 25 22 18 16 11 10 6 19 25 27 28 29 29 29 27 25 23 23 20 19
1 6 7 3 10 13 13 14 14 8 7 8 6 6 7 8 7 11 12 14 14 15 15 19 22 22 20 17 12 9 12 14 21 24 27 27 25 23 24 26 26 23 22 24
1 2 4 8 8 13 9 10 12 9 7 8 6 6 9 5 10 14 17 19 19 19 18 19 22 23 22 18 15 14 12 20 14 21 25 26 28 22 24 22 24 24 25 29
4 4 5 13 12 5 5 8 12 9 5 5 10 11 13 7 11 12 13 21 20 20 21 20 23 25 26 23 21 19 15 16 11 13 23 24 26 27 24 24 23 25 26 25
6 4 7 4 3 6 7 10 10 9 9 10 11 19 18 13 14 16 19 19 21 24 26 23 24 30 28 22 20 21 15 9 4 4 8 11 25 27 28 28 23 22 27 27
3 5 7 7 4 8 12 8 6 7 10 7 14 15 17 13 12 12 18 19 18 23 27 30 26 29 28 22 23 27 23 12 15 17 18 15 14 10 6 7 15 22 25 26
7 7 3 7 7 7 7 8 6 8 10 8 11 16 16 17 18 20 18 21 23 21 25 26 29 30 29 23 20 23 21 15 10 19 27 27 22 26 31 22 11 5 16 28
3 2 4 5 5 5 6 8 4 8 11 9 12 14 18 18 18 19 20 20 21 23 26 25 26 23 24 22 14 7 10 14 13 7 11 18 20 21 21 9 17 18 12 19
5 4 3 3 2 3 2 5 6 15 13 11 16 20 17 16 13 16 20 20 23 27 28 23 22 20 23 19 17 13 7 9 8 8 9 19 22 27 16 12 10 10 11 10
7 6 9 9 5 5 8 10 9 20 14 12 17 16 18 16 17 18 22 24 25 22 27 22 22 21 23 22 20 22 19 18 19 19 19 15 11 33 26 13 15 8 9 8
13 16 17 17 13 9 16 15 15 20 20 12 19 22 21 17 13 19 22 23 23 23 23 21 22 22 22 22 23 24 23 23 24 27 29 26 20 19 40 21 10 10 9 11
4 5 12 13 12 12 23 21 19 20 22 18 14 18 18 19 19 20 23 19 24 29 23 21 21 23 25 22 27 27 25 25 26 25 25 24 28 31 29 26 21 16 15 13
10 6 4 3 3 7 14 17 21 21 18 20 10 7 11 13 18 22 21 19 24 28 32 31 18 22 24 27 26 27 26 26 25 26 25 24 25 26 26 26 27 26 23 22
17 14 13 11 13 10 6 8 12 13 13 12 15 12 4 9 15 21 16 17 24 27 28 33 23 19 23 27 28 30 30 29 27 26 25 25 25 25 26 25 25 24 22 23
12 13 17 21 19 15 15 17 18 15 12 15 11 11 12 10 12 14 17 18 23 22 26 27 29 14 21 23 26 28 30 29 28 29 29 24 24 24 26 25 23 22 22 22
7 5 9 14 10 6 2 5 8 8 10 15 16 9 9 7 11 13 16 18 20 19 21 23 29 19 15 21 23 24 24 25 25 25 27 29 28 26 24 23 22 22 23 24
5 6 7 9 12 17 17 18 18 18 20 17 8 8 13 16 15 12 14 16 15 13 15 19 21 23 22 14 17 17 18 20 23 23 24 25 22 21 20 20 21 21 21 22
3 1 3 12 6 10 12 13 13 11 9 13 14 12 12 15 15 15 12 13 14 17 7 14 16 17 21 21 22 12 12 14 17 19 19 18 17 17 18 19 19 20 20 20
Wind_Direction
235 260 296 284 304 320 297 226 160 228 213 220 0 356 7 23 105 102 53 22 30 333 220 192 188 186 193 193 192 196 197 199 210 220 222 223 225 225 223 231 239 246 248 250
291 292 336 311 306 310 349 349 215 133 46 158 112 71 47 36 49 54 60 36 9 337 251 213 187 186 190 194 193 192 192 202 207 213 218 220 222 221 218 227 235 241 240 243
291 329 1 322 350 26 83 23 331 150 153 137 89 81 65 59 43 43 40 29 81 297 317 23 207 191 195 191 190 189 193 196 205 213 215 218 218 216 215 224 232 235 234 233
260 351 164 224 27 84 84 33 11 25 33 33 82 94 67 61 69 51 30 360 321 329 322 12 115 196 188 191 188 188 191 195 203 206 211 213 212 211 215 222 228 231 223 224
154 235 281 73 21 352 1 29 8 0 10 28 357 56 34 19 23 34 21 353 323 324 333 355 35 184 187 181 182 182 189 197 204 205 205 208 207 208 213 220 228 229 218 214
359 349 225 53 326 305 228 46 350 352 0 19 21 54 17 355 11 12 359 350 349 348 359 7 11 49 174 175 180 185 194 203 209 208 207 205 206 206 214 219 224 223 214 213
234 247 291 340 325 307 91 316 326 346 44 70 71 357 13 11 9 11 356 350 356 2 10 3 6 36 96 135 149 211 206 207 209 211 211 210 208 207 213 218 222 218 213 208
145 217 328 345 30 58 196 265 304 354 35 92 98 79 19 24 5 9 357 355 3 9 6 3 9 28 57 50 7 282 217 208 209 211 208 209 209 210 213 215 217 213 207 199
70 82 21 13 39 18 15 357 325 20 42 99 84 67 62 6 10 5 3 360 5 12 4 7 15 15 5 21 15 6 213 209 206 208 208 211 206 204 205 211 203 199 193 185
197 12 4 24 22 21 5 12 342 20 51 69 82 106 116 115 36 32 12 2 8 15 8 1 11 5 359 360 24 21 334 228 207 208 205 207 206 204 200 200 198 194 189 180
9 348 331 41 24 3 3 1 5 0 30 63 68 63 69 40 25 23 29 25 18 22 12 2 6 7 7 0 1 37 348 298 225 213 209 206 203 203 205 210 206 199 196 196
255 292 308 282 337 336 16 348 342 342 16 37 68 64 62 59 43 21 23 24 20 20 14 7 9 9 10 12 11 44 359 322 248 226 220 216 211 206 210 210 213 215 210 207
249 302 264 282 301 326 0 336 327 321 40 59 50 90 71 50 33 34 33 23 16 15 8 2 15 9 13 14 25 32 0 315 316 247 234 217 214 213 205 211 211 214 219 228
288 298 285 230 308 6 351 327 343 23 53 56 63 75 78 74 58 40 30 22 10 12 8 7 11 12 11 18 34 38 9 7 38 355 259 234 221 219 217 206 200 204 204 213
264 299 263 268 35 9 1 347 29 19 11 27 65 82 84 81 59 48 50 32 19 20 13 5 8 11 9 7 27 31 18 6 70 79 76 77 76 35 261 227 203 196 195 198
290 298 351 70 52 13 349 355 31 5 15 333 61 82 78 75 65 53 50 34 28 15 10 5 9 9 12 8 25 23 20 18 41 93 96 84 67 51 50 32 27 232 202 187
233 65 49 62 42 5 332 322 22 36 357 354 73 83 75 64 59 51 50 44 30 25 20 15 10 18 20 23 30 14 354 37 23 51 119 123 97 64 47 6 12 308 214 190
90 82 54 67 4 297 285 357 40 49 8 2 74 85 81 65 53 50 51 46 43 34 22 22 29 32 33 31 40 54 59 36 43 32 72 94 110 98 71 75 322 203 139 158
95 48 43 31 349 107 88 68 48 63 40 26 76 80 89 80 65 58 54 45 34 23 16 36 40 42 38 38 49 50 58 64 63 59 64 68 72 111 109 47 20 59 95 112
74 59 46 25 30 84 84 66 69 74 50 73 73 83 77 76 69 53 51 43 32 20 37 48 48 48 46 49 50 57 54 55 61 60 63 64 61 65 102 127 105 83 70 63
123 93 86 71 39 59 73 73 66 58 59 67 98 91 82 75 67 54 49 40 37 40 52 51 50 44 53 63 59 61 61 59 59 59 64 64 66 72 77 84 89 89 75 63
177 178 133 153 112 67 79 83 76 79 78 66 68 56 74 71 66 63 55 52 46 43 46 44 58 51 59 63 63 64 65 66 66 65 60 63 70 74 73 74 75 70 66 59
192 186 184 188 191 165 147 131 121 135 141 120 111 109 97 77 64 62 49 54 42 42 41 42 56 68 64 66 72 75 75 72 68 66 68 67 73 75 75 73 70 67 64 59
149 156 194 212 227 196 186 210 186 158 115 81 75 127 109 86 71 72 65 57 54 48 42 40 46 89 67 71 76 81 81 80 75 72 73 75 79 77 73 72 71 64 59 57
87 82 67 75 99 81 111 121 161 181 145 159 132 116 74 106 89 90 69 62 58 50 39 40 45 65 71 68 79 83 78 77 77 78 75 81 87 82 76 67 64 61 58 54
73 113 85 78 92 98 90 87 83 99 100 105 143 123 94 83 76 87 81 67 54 49 36 39 46 54 62 60 62 83 84 75 75 79 84 84 80 74 67 61 56 54 54 53
15 190 80 48 103 107 100 97 84 66 78 105 106 107 102 88 77 69 66 58 44 32 41 44 47 42 45 49 53 61 100 91 76 73 78 82 76 69 61 56 52 50 48 46